FW0464 Weather Reports


Display with metric or nautical units.
time (UTC)temp
F
wind
direction
speed
MPH
gust
MPH
rain 1hr
in
rain 24hr
in
rain mn
in
humidity
%
barometer
mb
20260504023031 59 344 15.0 27.0 0.00 0.00 0.00 40 1001.4
20260504021534 60 355 19.0 40.0 0.00 0.00 0.00 39 1001.1
20260504020037 64 315 9.0 17.0 0.00 0.00 0.00 36 1000.2
20260504014536 64 300 9.0 23.0 0.00 0.00 0.00 35 1000.0
20260504013029 65 311 15.0 23.0 0.00 0.00 0.00 34 999.8
20260504011526 67 281 13.0 28.0 0.00 0.00 0.00 33 999.9
20260504010025 68 272 17.0 28.0 0.00 0.00 0.00 32 999.8
20260504004525 68 273 17.0 29.0 0.00 0.00 0.00 33 1000.0
20260504003028 69 267 16.0 32.0 0.00 0.00 0.00 33 1000.0
20260504001524 70 355 18.0 32.0 0.00 0.00 0.00 33 1000.0
20260504000023 70 294 18.0 31.0 0.00 0.00 0.00 33 1000.2
20260503234523 71 313 20.0 35.0 0.00 0.00 0.00 31 1000.1
20260503233023 72 294 19.0 34.0 0.00 0.00 0.00 27 1000.1
20260503231523 72 254 16.0 29.0 0.00 0.00 0.00 24 1000.2
20260503230022 73 253 16.0 28.0 0.00 0.00 0.00 23 1000.1
20260503224521 73 232 14.0 35.0 0.00 0.00 0.00 25 1000.2
20260503223020 73 248 18.0 35.0 0.00 0.00 0.00 26 1000.5
20260503221518 73 259 12.0 28.0 0.00 0.00 0.00 25 1000.8
20260503220017 73 271 16.0 32.0 0.00 0.00 0.00 25 1001.1
20260503214533 73 254 14.0 29.0 0.00 0.00 0.00 24 1001.5
20260503213012 72 257 23.0 37.0 0.00 0.00 0.00 27 1001.6
20260503211512 72 236 17.0 44.0 0.00 0.00 0.00 31 1002.0
20260503210008 71 252 26.0 38.0 0.00 0.00 0.00 34 1002.4
20260503204507 70 254 19.0 36.0 0.00 0.00 0.00 34 1002.8
20260503203002 70 246 22.0 30.0 0.00 0.00 0.00 33 1003.2
20260503201601 67 245 19.0 30.0 0.00 0.00 0.00 33 1003.4
20260503200115 68 256 14.0 27.0 0.00 0.00 0.00 29 1003.9
20260503194603 67 247 18.0 27.0 0.00 0.00 0.00 31 1004.1
20260503193103 67 233 20.0 29.0 0.00 0.00 0.00 35 1004.7
20260503191555 66 247 12.0 24.0 0.00 0.00 0.00 35 1005.2
20260503190051 66 259 20.0 30.0 0.00 0.00 0.00 33 1005.5
20260503184558 67 251 17.0 29.0 0.00 0.00 0.00 36 1005.6
20260503183047 66 254 18.0 32.0 0.00 0.00 0.00 35 1006.4
20260503181607 65 260 15.0 29.0 0.00 0.00 0.00 36 1006.7
20260503180056 66 242 18.0 30.0 0.00 0.00 0.00 38 1007.0
20260503174547 65 234 18.0 30.0 0.00 0.00 0.00 41 1007.1
20260503173052 65 266 20.0 31.0 0.00 0.00 0.00 41 1007.3
20260503171537 64 254 20.0 31.0 0.00 0.00 0.00 42 1007.6
20260503081536 44 211 6.0 7.0 0.00 0.00 0.00 59 1012.2
20260503071520 46 198 5.0 6.0 0.00 0.00 0.00 57 1012.5
20260503054514 51 157 2.0 5.0 0.00 0.00 0.00 47 1012.6
20260503053006 52 157 2.0 3.0 0.00 0.00 0.00 47 1012.7
20260503051508 52 151 1.0 3.0 0.00 0.00 0.00 47 1012.7
20260503050005 51 111 1.0 3.0 0.00 0.00 0.00 48 1012.9
20260503044504 50 341 0.0 1.0 0.00 0.00 0.00 50 1012.9
20260503043004 53 341 0.0 2.0 0.00 0.00 0.00 46 1013.0
20260503041503 53 341 0.0 2.0 0.00 0.00 0.00 46 1013.1
20260503040005 53 341 0.0 0.0 0.00 0.00 0.00 46 1013.2
20260503034504 53 341 1.0 2.0 0.00 0.00 0.00 46 1013.2
20260503033008 52 341 0.0 0.0 0.00 0.00 0.00 48 1013.3
20260503031504 53 341 0.0 2.0 0.00 0.00 0.00 47 1013.2
20260503030003 54 341 1.0 3.0 0.00 0.00 0.00 45 1013.2
20260503024502 54 341 3.0 4.0 0.00 0.00 0.00 45 1012.9